Weather History for Angel Fire, NM

Change the Weather History Date:

Saturday, November 3, 2012

  Actual Average (KSKX) Record (KSKX)
Temperature  
Mean Temperature 38 °F -  
Max Temperature 55 °F 52 °F 66 °F (2001)
Min Temperature 19 °F 23 °F 10 °F (2004)
Degree Days  
Heating Degree Days 28    
Moisture  
Dew Point 8 °F    
Average Humidity 39    
Maximum Humidity 61    
Minimum Humidity 12    
Precipitation  
Precipitation 0.00 in - - ()
Sea Level Pressure  
Sea Level Pressure 30.30 in    
Wind  
Wind Speed 3 mph (WSW)    
Max Wind Speed 16 mph    
Max Gust Speed 23 mph    
Visibility 10 miles    
Events      
Averages and records for this station are not official NWS values.
T = Trace of Precipitation, MM = Missing Value Source: NWS Daily Summary

Daily Weather History Graph

Daily Weather History Graph

Search for Another Location

Airport:

Trip Planner

Search our weather history database for the weather conditions in past years. The results will help you decide how hot, cold, wet, or windy it might be!

Date:

Astronomy

Nov. 03, 2012 Rise Set
Actual Time 7:26 AM MDT 6:02 PM MDT
Civil Twilight 7:00 AM MDT 6:28 PM MDT
Nautical Twilight 6:29 AM MDT 6:59 PM MDT
Astronomical Twilight 5:59 AM MDT 7:29 PM MDT
Moon 9:48 PM MDT (11/3) 11:29 AM MDT (11/3)
Length of Visible Light 11h 28m
Length of Day
10h 35m
Waning Gibbous, 80% of the Moon is Illuminated
Nov 3
Waning Gibbous
Nov 6
Last Quarter
Nov 13
New
Nov 20
First Quarter
Nov 28
Full

Hourly Weather History & Observations

Time (MDT) Temp. Windchill Dew Point Humidity Pressure Visibility Wind Dir Wind Speed Gust Speed Precip Events Conditions
12:15 AM 27.1 °F - 5.9 °F 41% 30.29 in 10.0 mi Calm Calm - N/A   Clear
12:35 AM 24.8 °F - 7.3 °F 48% 30.29 in 10.0 mi Calm Calm - N/A   Clear
1:15 AM 24.8 °F - 6.8 °F 46% 30.29 in 10.0 mi Calm Calm - N/A   Clear
1:35 AM 22.1 °F - 5.7 °F 49% 30.29 in 10.0 mi Calm Calm - N/A   Clear
1:55 AM 23.5 °F - 5.7 °F 47% 30.29 in 10.0 mi Calm Calm - N/A   Clear
2:15 AM 20.5 °F - 4.6 °F 50% 30.29 in 10.0 mi Calm Calm - N/A   Clear
2:35 AM 22.6 °F - 7.9 °F 53% 30.29 in 10.0 mi Calm Calm - N/A   Clear
2:55 AM 21.6 °F - 6.1 °F 51% 30.29 in 10.0 mi Calm Calm - N/A   Clear
3:15 AM 21.9 °F - 6.8 °F 52% 30.29 in 10.0 mi Calm Calm - N/A   Clear
3:35 AM 22.8 °F - 7.3 °F 52% 30.29 in 10.0 mi Calm Calm - N/A   Clear
3:55 AM 22.6 °F - 9.7 °F 58% 30.29 in 10.0 mi Calm Calm - N/A   Clear
4:15 AM 24.3 °F - 8.6 °F 51% 30.29 in 10.0 mi Calm Calm - N/A   Clear
4:35 AM 23.9 °F - 9.1 °F 53% 30.30 in 10.0 mi Calm Calm - N/A   Clear
4:55 AM 21.4 °F - 7.9 °F 56% 30.30 in 10.0 mi Calm Calm - N/A   Clear
5:15 AM 23.4 °F - 9.1 °F 55% 30.30 in 10.0 mi Calm Calm - N/A   Clear
5:35 AM 21.9 °F - 8.4 °F 56% 30.30 in 10.0 mi Calm Calm - N/A   Clear
5:55 AM 23.7 °F - 9.7 °F 55% 30.31 in 10.0 mi Calm Calm - N/A   Clear
6:15 AM 22.6 °F - 9.7 °F 58% 30.31 in 10.0 mi Calm Calm - N/A   Clear
6:35 AM 21.9 °F - 10.0 °F 60% 30.31 in 10.0 mi Calm Calm - N/A   Clear
6:55 AM 21.9 °F - 9.9 °F 60% 30.31 in 10.0 mi Calm Calm - N/A   Clear
7:15 AM 22.5 °F - 10.6 °F 60% 30.32 in 10.0 mi Calm Calm - N/A   Clear
7:35 AM 24.6 °F - 11.7 °F 58% 30.32 in 10.0 mi Calm Calm - N/A   Clear
7:55 AM 24.3 °F - 12.6 °F 61% 30.32 in 10.0 mi Calm Calm - N/A   Clear
8:15 AM 26.2 °F - 12.9 °F 57% 30.33 in 10.0 mi Calm Calm - N/A   Clear
8:35 AM 28.4 °F - 14.0 °F 55% 30.33 in 10.0 mi Calm Calm - N/A   Clear
8:55 AM 29.3 °F - 14.9 °F 55% 30.34 in 10.0 mi Calm Calm - N/A   Clear
9:15 AM 31.5 °F - 14.9 °F 50% 30.34 in 10.0 mi Calm Calm - N/A   Clear
9:35 AM 33.4 °F - 15.6 °F 48% 30.33 in 10.0 mi Calm Calm - N/A   Clear
9:55 AM 35.8 °F - 15.6 °F 44% 30.33 in 10.0 mi Calm Calm - N/A   Clear
10:15 AM 37.9 °F - 16.2 °F 41% 30.33 in 10.0 mi Calm Calm - N/A   Clear
10:35 AM 41.4 °F - 16.9 °F 37% 30.33 in 10.0 mi Calm Calm - N/A   Clear
10:55 AM 49.1 °F - 18.1 °F 29% 30.32 in 10.0 mi SSE 13.8 mph - N/A   Clear
11:15 AM 51.4 °F - 14.0 °F 23% 30.31 in 10.0 mi SSE 11.5 mph - N/A   Clear
11:35 AM 53.1 °F - 8.1 °F 16% 30.31 in 10.0 mi SSW 10.4 mph - N/A   Clear
11:55 AM 55.2 °F - 3.6 °F 12% 30.31 in 10.0 mi WSW 11.5 mph 17.3 mph N/A   Clear
12:15 PM 54.0 °F - 4.5 °F 14% 30.30 in 10.0 mi WNW 13.8 mph 20.7 mph N/A   Clear
12:35 PM 54.3 °F - 3.9 °F 13% 30.31 in 10.0 mi West 15.0 mph 19.6 mph N/A   Clear
12:55 PM 54.3 °F - 4.1 °F 13% 30.30 in 10.0 mi WSW 10.4 mph 19.6 mph N/A   Clear
1:15 PM 54.5 °F - 3.9 °F 13% 30.29 in 10.0 mi WSW 13.8 mph 17.3 mph N/A   Clear
1:35 PM 54.3 °F - 3.7 °F 13% 30.29 in 10.0 mi West 13.8 mph 21.9 mph N/A   Clear
1:55 PM 54.7 °F - 3.6 °F 13% 30.29 in 10.0 mi West 13.8 mph - N/A   Clear
2:15 PM 54.7 °F - 3.2 °F 12% 30.28 in 10.0 mi West 11.5 mph 17.3 mph N/A   Clear
2:35 PM 54.1 °F - 3.4 °F 13% 30.28 in 10.0 mi WSW 10.4 mph 18.4 mph N/A   Clear
2:55 PM 55.0 °F - 3.9 °F 13% 30.28 in 10.0 mi West 11.5 mph 23.0 mph N/A   Clear
3:15 PM 54.7 °F - 3.9 °F 13% 30.28 in 10.0 mi West 16.1 mph 21.9 mph N/A   Clear
3:35 PM 55.4 °F - 4.1 °F 13% 30.27 in 10.0 mi WSW 11.5 mph 18.4 mph N/A   Clear
3:55 PM 55.4 °F - 3.7 °F 12% 30.27 in 10.0 mi West 15.0 mph 18.4 mph N/A   Clear
4:15 PM 55.4 °F - 2.3 °F 12% 30.27 in 10.0 mi West 10.4 mph 20.7 mph N/A   Clear
4:35 PM 54.5 °F - 3.6 °F 13% 30.27 in 10.0 mi West 10.4 mph - N/A   Clear
4:55 PM 53.6 °F - 3.9 °F 13% 30.27 in 10.0 mi West 10.4 mph 16.1 mph N/A   Clear
5:15 PM 52.9 °F - 3.7 °F 14% 30.27 in 10.0 mi West 6.9 mph 10.4 mph N/A   Clear
5:35 PM 51.1 °F - 4.1 °F 15% 30.27 in 10.0 mi WSW 10.4 mph - N/A   Clear
5:55 PM 49.1 °F - 4.5 °F 16% 30.28 in 10.0 mi WSW 8.1 mph - N/A   Clear
6:15 PM 44.6 °F - 5.5 °F 20% 30.28 in 10.0 mi Calm Calm - N/A   Clear
6:35 PM 41.0 °F - 6.1 °F 24% 30.28 in 10.0 mi Calm Calm - N/A   Clear
7:15 PM 35.4 °F - 8.1 °F 32% 30.30 in 10.0 mi Calm Calm - N/A   Clear
7:35 PM 32.2 °F - 7.7 °F 36% 30.31 in 10.0 mi Calm Calm - N/A   Clear
7:55 PM 32.4 °F 29.1 °F 8.4 °F 37% 30.31 in 10.0 mi South 3.5 mph - N/A   Clear
8:15 PM 29.8 °F 26.3 °F 8.4 °F 41% 30.31 in 10.0 mi SSE 3.5 mph - N/A   Clear
8:35 PM 27.7 °F - 8.4 °F 44% 30.32 in 10.0 mi Calm Calm - N/A   Clear
8:55 PM 26.8 °F - 8.1 °F 45% 30.32 in 10.0 mi Calm Calm - N/A   Clear
9:15 PM 26.4 °F 20.9 °F 9.1 °F 48% 30.32 in 10.0 mi South 4.6 mph - N/A   Clear
9:35 PM 25.2 °F - 8.8 °F 50% 30.33 in 10.0 mi Calm Calm - N/A   Clear
9:55 PM 23.2 °F - 7.5 °F 51% 30.33 in 10.0 mi Calm Calm - N/A   Clear
10:15 PM 26.1 °F 20.5 °F 10.9 °F 53% 30.34 in 10.0 mi SE 4.6 mph - N/A   Clear
10:35 PM 22.6 °F - 8.4 °F 55% 30.34 in 10.0 mi Calm Calm - N/A   Clear
10:55 PM 24.3 °F - 8.4 °F 51% 30.34 in 10.0 mi Calm Calm - N/A   Clear
11:15 PM 24.4 °F 20.1 °F 10.0 °F 54% 30.35 in 10.0 mi SSE 3.5 mph - N/A   Clear
11:35 PM 20.7 °F - 8.2 °F 59% 30.35 in 10.0 mi Calm Calm - N/A   Clear
11:55 PM 19.2 °F - 7.5 °F 60% 30.35 in 10.0 mi Calm Calm - N/A   Clear